This is the latest recevied weather packets stored in our database for station/object W2IRT. If no packets are shown the sender has not sent any weather packets the latest 10 day(s).
| Time | Temp. | Humidity | Pressure | Rain* | Wind** | Luminosity | Snow |
|---|---|---|---|---|---|---|---|
| 1777777817 | 11.67° C | 41% | 1010.9 hPa | 0 mm | - | - | - |
| 1777777517 | 11.67° C | 43% | 1010.8 hPa | 0 mm | - | - | - |
| 1777777217 | 11.67° C | 41% | 1010.9 hPa | 0 mm | - | - | - |
| 1777776917 | 11.67° C | 40% | 1010.9 hPa | 0 mm | - | - | - |
| 1777776617 | 11.67° C | 42% | 1010.8 hPa | 0 mm | - | - | - |
| 1777776316 | 11.67° C | 39% | 1010.8 hPa | 0 mm | - | - | - |
| 1777776017 | 11.67° C | 40% | 1010.8 hPa | 0 mm | - | - | - |
| 1777775731 | 12.22° C | 41% | 1010.7 hPa | 0 mm | - | - | - |
| 1777775417 | 12.22° C | 42% | 1010.8 hPa | 0 mm | - | - | - |
| 1777775131 | 12.22° C | 41% | 1010.7 hPa | 0 mm | - | - | - |
| 1777774816 | 12.22° C | 40% | 1010.7 hPa | 0 mm | - | - | - |
| 1777774517 | 12.22° C | 41% | 1010.8 hPa | 0 mm | - | - | - |
| 1777774217 | 12.22° C | 42% | 1010.9 hPa | 0 mm | - | - | - |
| 1777773916 | 12.22° C | 42% | 1010.9 hPa | 0 mm | - | - | - |
| 1777773616 | 12.22° C | 42% | 1010.8 hPa | 0 mm | - | - | - |
| 1777773317 | 12.22° C | 42% | 1011 hPa | 0 mm | - | - | - |
| 1777773016 | 12.22° C | 39% | 1011.1 hPa | 0 mm | - | - | - |
| 1777772716 | 12.22° C | 40% | 1011 hPa | 0 mm | - | - | - |
| 1777772416 | 12.22° C | 39% | 1010.9 hPa | 0 mm | - | - | - |
| 1777772117 | 12.22° C | 40% | 1011 hPa | 0 mm | - | - | - |
| 1777771816 | 12.22° C | 39% | 1011 hPa | 0 mm | - | - | - |
| 1777771516 | 12.22° C | 40% | 1011 hPa | 0 mm | - | - | - |
| 1777771216 | 12.22° C | 41% | 1011 hPa | 0 mm | - | - | - |
| 1777770916 | 12.22° C | 40% | 1011 hPa | 0 mm | - | - | - |
| 1777770617 | 12.22° C | 39% | 1011 hPa | 0 mm | - | - | - |
* Rain latest hour (hover to see other rain measurements)
** Current wind speed in m/s (hover to see current wind gust speed)